Tracking 30157 objects as of 12-Feb-2025
HD Live streaming from Space Station
objects crossing your sky now

TOMORROW-S3

Track TOMORROW-S3 now!
10-day predictions


NORAD ID: 62392
Int'l Code: 2024-247R
Perigee: 512.4 km
Apogee: 515.9 km
Inclination: 45.0 °
Period: 94.8 minutes
Semi major axis: 6885 km
RCS: Unknown
Launch date: December 21, 2024
Source: United States (US)
Launch site: AIR FORCE WESTERN TEST RANGE (AFWTR)
Your satellite tracking list
Your tracking list is empty




NASA's NSSDC Master Catalog

Two Line Element Set (TLE):
1 62392U 24247R   25042.49539415  .00023867  00000-0  11103-2 0  9998
2 62392  44.9962  80.8186 0002546  33.6697 326.4344 15.19602446  8057
Source of the keplerian elements: AFSPC